[[{"header":{"parameterUnit":"m.s-1","parameterCategory":1,"la1":30.2991,"la2":30.254,"lo1":-89.0895,"lo2":-89.0444,"dy":0.0017,"dx":0.0017,"nx":28,"ny":28,"refTime":"2023-09-14T21:00:00:Z","depth":0,"parameterNumber":2,"parameterNumberName":"U-component_of_WINDS"},"data":[0,0,0,0,0,0,0,0,0,0,0,0,0,0,0,0,0,0,0,0,0,0,0,0,0,0,0,0,0,0,0,0,0,0,0,0,0,0,0,0,0,0,0,0,0,0,0,0,0,0,0,0,0,0,0,0,0,0,-3.2604,-3.2604,0,-3.265,-3.265,-3.2651,-3.2633,-3.2632,-3.2631,-3.263,-3.2672,-3.2674,-3.2677,0,0,0,0,0,0,0,0,0,0,0,0,0,-3.2495,-3.2498,-3.2604,-3.2604,-3.2605,-3.2649,-3.265,-3.2651,-3.2633,-3.2632,-3.263,-3.2629,-3.2672,-3.2674,-3.2677,0,0,0,0,0,0,0,0,0,0,0,0,0,-3.2542,-3.2498,-3.2604,-3.2601,-3.2602,-3.2649,-3.265,-3.2651,-3.2633,-3.2632,-3.263,-3.2629,-3.2671,-3.2674,-3.2677,-3.2728,0,0,-3.2687,-3.2688,0,0,0,0,0,0,0,0,-3.2539,-3.2546,-3.2601,-3.2602,-3.2602,-3.2634,-3.2628,-3.2677,-3.2634,-3.2621,-3.263,-3.2628,-3.2661,-3.2664,-3.2676,-3.273,-3.2732,-3.2687,-3.2689,-3.269,-3.2691,0,0,0,0,0,0,0,-3.2536,-3.2544,-3.2622,-3.2602,-3.2603,-3.2596,-3.2601,-3.2637,-3.2649,-3.2622,-3.2621,-3.2627,-3.266,-3.2673,-3.2677,-3.2733,-3.2687,-3.269,-3.2692,-3.2693,-3.2828,-3.283,0,0,0,0,0,0,-3.2533,-3.2541,-3.262,-3.2623,-3.2566,-3.26,-3.2605,-3.2625,-3.2649,-3.2651,-3.2628,-3.2626,-3.2669,-3.2674,-3.2679,-3.2738,-3.269,-3.2693,-3.2695,-3.2827,-3.2829,-3.2831,0,0,0,0,0,0,-3.2531,-3.2541,-3.2618,-3.2582,-3.2591,-3.2603,-3.2626,-3.2627,-3.264,-3.2653,-3.2655,-3.2639,-3.2668,-3.2674,-3.2716,-3.274,-3.2695,-3.2698,-3.2825,-3.2827,-3.283,-3.2859,0,0,0,0,0,0,-3.2528,-3.254,-3.2561,-3.2583,-3.2593,-3.2656,-3.2627,-3.2629,-3.2646,-3.2643,-3.2664,-3.2666,-3.2667,-3.2711,-3.2719,-3.2743,-3.27,-3.2823,-3.2826,-3.2829,-3.2856,-3.2862,-3.2868,0,0,0,0,0,-3.2524,-3.2567,-3.2562,-3.2572,-3.262,-3.2658,-3.2664,-3.2665,-3.2648,-3.2668,-3.2676,-3.2665,-3.2736,-3.2716,-3.2724,-3.275,-3.2821,-3.2825,-3.2829,-3.2853,-3.2861,-3.2868,0,0,0,0,0,0,-3.2546,-3.257,-3.2565,-3.2616,-3.2635,-3.2655,-3.268,-3.2674,-3.2697,-3.2693,-3.2693,-3.2698,-3.274,-3.2749,-3.2726,-3.2799,-3.2776,-3.2782,-3.2792,-3.2799,-3.2805,-3.2801,-3.2703,0,0,0,0,0,-3.2557,-3.2588,-3.2606,-3.2649,-3.2659,-3.2668,-3.2685,-3.2684,-3.2703,-3.2711,-3.2723,-3.274,-3.2766,-3.2784,-3.2809,-3.2858,-3.2861,-3.288,-3.2885,-3.289,-3.2894,-3.2919,-3.2927,-3.2843,-3.2843,-3.2843,0,0,-3.258,-3.2596,-3.2615,-3.2654,-3.2669,-3.2698,-3.2675,-3.2708,-3.2729,-3.2716,-3.2755,-3.2764,-3.2784,-3.2829,-3.285,-3.2838,-3.2918,-3.2895,-3.2899,-3.29,-3.2924,-3.2932,-3.2939,-3.2846,-3.2845,-3.2845,0,0,-3.2636,-3.2653,-3.2689,-3.2705,-3.2728,-3.2734,-3.2742,-3.2763,-3.2769,-3.2809,-3.2799,-3.2824,-3.287,-3.2883,-3.2896,-3.2957,-3.2947,-3.2965,-3.2995,-3.3019,-3.3025,-3.3031,-3.305,-3.3057,-3.297,-3.297,-3.297,0,-3.266,-3.2706,-3.2709,-3.2742,-3.2758,-3.2749,-3.2785,-3.2799,-3.2829,-3.2839,-3.2827,-3.2883,-3.2896,-3.2943,-3.2957,-3.2969,-3.2977,-3.2962,-3.3024,-3.303,-3.3036,-3.3054,-3.3061,-3.2972,-3.2971,-3.2971,-3.2971,0,-3.2734,-3.2766,-3.2792,-3.2822,-3.2841,-3.2876,-3.2882,-3.2901,-3.2899,-3.2905,-3.2945,-3.296,-3.2987,-3.2998,-3.2996,-3.3045,-3.3037,-3.3025,-3.3,-3.3045,-3.3062,-3.307,-3.2974,-3.2974,-3.2973,-3.2973,0,0,-3.2804,-3.2835,-3.2844,-3.2857,-3.2882,-3.2905,-3.2938,-3.2966,-3.2981,-3.3002,-3.3028,-3.3067,-3.3055,-3.307,-3.3069,-3.309,-3.3134,-3.3075,-3.3075,-3.3083,-3.3186,-3.3194,-3.3202,-3.3129,-3.313,-3.3131,-3.3184,0,-3.286,-3.292,-3.2923,-3.2976,-3.3004,-3.2995,-3.3024,-3.3041,-3.3048,-3.3071,-3.3078,-3.3104,-3.3088,-3.3096,-3.3117,-3.3125,-3.3154,-3.3121,-3.3151,-3.3152,-3.3144,-3.3211,-3.322,-3.3269,-3.3191,-3.3192,-3.3193,0,-3.2934,-3.2957,-3.3013,-3.3033,-3.3044,-3.307,-3.3095,-3.3118,-3.3136,-3.3139,-3.3156,-3.3152,-3.3184,-3.316,-3.3203,-3.318,-3.3192,-3.3197,-3.3199,-3.32,-3.3173,-3.3212,-3.3285,-3.3291,-3.3204,-3.3203,-3.3202,0,-3.2976,-3.3022,-3.3061,-3.3073,-3.3097,-3.3115,-3.3125,-3.3142,-3.3158,-3.3179,-3.3189,-3.3213,-3.3226,-3.3244,-3.3246,-3.3229,-3.3288,-3.3265,-3.3289,-3.3289,-3.33,-3.3299,-3.3374,-3.3312,-3.3312,-3.3312,-3.3312,0,-3.3037,-3.3071,-3.3081,-3.3104,-3.3142,-3.3144,-3.3181,-3.319,-3.3205,-3.3229,-3.3223,-3.3245,-3.3247,-3.327,-3.3271,-3.3305,-3.3311,-3.3313,-3.3313,-3.3312,-3.3312,-3.3319,-3.3315,-3.3314,-3.3313,-3.3313,-3.3313,0,-3.3091,-3.3099,-3.314,-3.316,-3.3165,-3.3192,-3.3207,-3.3229,-3.3235,-3.3265,-3.3273,-3.3282,-3.3308,-3.3312,-3.3342,-3.3343,-3.3383,-3.338,-3.3377,-3.3376,-3.3399,-3.3396,-3.3479,-3.3489,-3.3423,-3.3423,-3.3424,0,-3.3128,-3.3154,-3.3177,-3.3193,-3.3204,-3.3231,-3.3247,-3.325,-3.3267,-3.3289,-3.3308,-3.3333,-3.3354,-3.3395,-3.3403,-3.3426,-3.3422,-3.345,-3.3426,-3.3424,-3.342,-3.3418,-3.3419,-3.3454,-3.3455,-3.3455,-3.3456,0,-3.3193,-3.3195,-3.322,-3.3245,-3.3265,-3.3284,-3.3303,-3.3316,-3.3321,-3.334,-3.3367,-3.3383,-3.3414,-3.3439,-3.3461,-3.347,-3.3463,-3.3464,-3.347,-3.3469,-3.3465,-3.3465,-3.3387,-3.3461,-3.3461,-3.346,-3.346,-3.346,-3.3238,-3.326,-3.3279,-3.3305,-3.332,-3.3337,-3.3358,-3.3367,-3.339,-3.3416,-3.3417,-3.3445,-3.3462,-3.3491,-3.3502,-3.3523,-3.3514,-3.3524,-3.3526,-3.3528,-3.3529,-3.3464,-3.3528,-3.3528,-3.3527,-3.3527,-3.3527,0,-3.33,-3.3312,-3.3337,-3.3363,-3.3384,-3.3377,-3.3397,-3.3414,-3.344,-3.3456,-3.3477,-3.3507,-3.353,-3.3541,-3.3563,-3.3579,-3.3576,-3.3584,-3.3582,-3.3584,-3.3537,-3.3528,-3.3586,-3.3586,-3.3586,-3.3586,-3.3586,-3.3586,-3.3335,-3.3372,-3.3376,-3.3419,-3.343,-3.3459,-3.347,-3.3486,-3.3499,-3.3533,-3.3553,-3.356,-3.3573,-3.3597,-3.3617,-3.362,-3.3627,-3.3637,-3.3637,-3.3593,-3.3587,-3.3581,-3.3573,-3.3639,-3.3639,-3.3682,-3.3682,-3.3682]},{"header":{"parameterUnit":"m.s-1","parameterCategory":1,"la1":30.2991,"la2":30.254,"lo1":-89.0895,"lo2":-89.0444,"dy":0.0017,"dx":0.0017,"nx":28,"ny":28,"refTime":"2023-09-14T21:00:00:Z","depth":0,"parameterNumber":3,"parameterNumberName":"V-component_of_WINDS"},"data":[0,0,0,0,0,0,0,0,0,0,0,0,0,0,0,0,0,0,0,0,0,0,0,0,0,0,0,0,0,0,0,0,0,0,0,0,0,0,0,0,0,0,0,0,0,0,0,0,0,0,0,0,0,0,0,0,0,0,-1.5807,-1.5809,0,-1.5979,-1.5981,-1.5983,-1.6082,-1.6083,-1.6083,-1.6083,-1.6255,-1.6259,-1.6264,0,0,0,0,0,0,0,0,0,0,0,0,0,-1.5562,-1.5566,-1.5807,-1.5809,-1.5811,-1.5978,-1.5981,-1.5983,-1.6082,-1.6083,-1.6083,-1.6084,-1.6254,-1.6259,-1.6264,0,0,0,0,0,0,0,0,0,0,0,0,0,-1.5694,-1.5567,-1.5807,-1.5881,-1.5889,-1.5978,-1.5981,-1.5984,-1.6082,-1.6083,-1.6083,-1.6084,-1.6252,-1.6258,-1.6265,-1.6291,0,0,-1.6284,-1.6287,0,0,0,0,0,0,0,0,-1.5687,-1.5703,-1.5868,-1.5876,-1.5886,-1.601,-1.5958,-1.6087,-1.6082,-1.6009,-1.6083,-1.6084,-1.6173,-1.6186,-1.6217,-1.63,-1.6307,-1.6285,-1.6288,-1.6291,-1.6293,0,0,0,0,0,0,0,-1.5677,-1.5696,-1.5875,-1.587,-1.5881,-1.5905,-1.5924,-1.5982,-1.6085,-1.6015,-1.6023,-1.6042,-1.6178,-1.621,-1.6221,-1.6309,-1.6284,-1.629,-1.6294,-1.6296,-1.6422,-1.6422,0,0,0,0,0,0,-1.5657,-1.5688,-1.587,-1.588,-1.5786,-1.5909,-1.593,-1.5969,-1.6085,-1.6103,-1.6041,-1.6046,-1.6199,-1.6214,-1.6228,-1.6266,-1.6291,-1.6297,-1.6301,-1.6423,-1.6422,-1.6422,0,0,0,0,0,0,-1.5651,-1.5672,-1.5863,-1.5786,-1.5812,-1.5912,-1.5955,-1.5972,-1.6005,-1.6105,-1.6123,-1.6056,-1.62,-1.6219,-1.6275,-1.6274,-1.63,-1.6306,-1.6423,-1.6423,-1.6422,-1.6343,0,0,0,0,0,0,-1.5644,-1.567,-1.5682,-1.5786,-1.5816,-1.5908,-1.5955,-1.5975,-1.6016,-1.6024,-1.6123,-1.614,-1.6202,-1.6265,-1.6281,-1.6283,-1.631,-1.6424,-1.6423,-1.6422,-1.6346,-1.634,-1.6335,0,0,0,0,0,-1.5635,-1.5652,-1.5682,-1.5703,-1.5833,-1.5908,-1.5925,-1.5997,-1.6015,-1.6028,-1.6092,-1.6137,-1.6271,-1.627,-1.6289,-1.6292,-1.6424,-1.6423,-1.6422,-1.6349,-1.6341,-1.6335,0,0,0,0,0,0,-1.5544,-1.5667,-1.5701,-1.5753,-1.5819,-1.5924,-1.5942,-1.5986,-1.6048,-1.6052,-1.6138,-1.6159,-1.6207,-1.6256,-1.6252,-1.6324,-1.6353,-1.6355,-1.629,-1.6284,-1.6278,-1.6265,-1.6316,0,0,0,0,0,-1.553,-1.5581,-1.5685,-1.5721,-1.5752,-1.5841,-1.5876,-1.5926,-1.5998,-1.6026,-1.6094,-1.616,-1.6218,-1.6254,-1.6312,-1.6354,-1.6377,-1.6366,-1.636,-1.6354,-1.6355,-1.6381,-1.6377,-1.6419,-1.6419,-1.6419,0,0,-1.5501,-1.5575,-1.5602,-1.5704,-1.5762,-1.5811,-1.5864,-1.5915,-1.5952,-1.6033,-1.609,-1.6143,-1.6223,-1.6272,-1.6297,-1.6314,-1.6349,-1.6353,-1.6348,-1.6352,-1.6379,-1.6375,-1.6371,-1.6418,-1.6418,-1.6418,0,0,-1.5474,-1.5536,-1.5572,-1.5628,-1.5715,-1.5774,-1.5782,-1.5881,-1.5919,-1.5978,-1.604,-1.6085,-1.6182,-1.6236,-1.6276,-1.627,-1.6313,-1.6286,-1.6255,-1.6278,-1.6275,-1.6273,-1.6269,-1.6267,-1.6287,-1.6287,-1.6287,0,-1.5427,-1.5506,-1.5584,-1.5632,-1.5674,-1.5751,-1.5788,-1.5838,-1.5938,-1.5966,-1.5984,-1.6107,-1.6166,-1.6229,-1.6227,-1.6257,-1.6269,-1.6275,-1.6269,-1.6268,-1.6266,-1.6264,-1.6263,-1.6283,-1.6284,-1.6284,-1.6285,0,-1.5444,-1.5497,-1.5516,-1.5612,-1.5657,-1.5698,-1.5782,-1.5818,-1.5863,-1.592,-1.5978,-1.6053,-1.6127,-1.6146,-1.619,-1.6214,-1.6222,-1.6253,-1.6284,-1.6257,-1.6257,-1.6256,-1.6278,-1.6279,-1.628,-1.6281,0,0,-1.5364,-1.5503,-1.5508,-1.5553,-1.5654,-1.5696,-1.574,-1.5814,-1.5843,-1.5909,-1.5948,-1.6028,-1.6058,-1.6103,-1.6155,-1.6176,-1.6165,-1.6205,-1.6208,-1.6194,-1.6194,-1.6169,-1.6167,-1.6195,-1.6195,-1.6195,-1.6187,0,-1.5351,-1.5436,-1.5508,-1.5565,-1.5615,-1.5689,-1.5727,-1.5792,-1.5846,-1.5896,-1.5955,-1.601,-1.6046,-1.6074,-1.6098,-1.6161,-1.6166,-1.6163,-1.623,-1.6231,-1.6206,-1.6167,-1.6141,-1.613,-1.6187,-1.6187,-1.6188,0,-1.5348,-1.5412,-1.5475,-1.557,-1.5594,-1.5627,-1.5701,-1.5747,-1.5822,-1.586,-1.5911,-1.5965,-1.6014,-1.604,-1.6108,-1.6104,-1.6136,-1.6171,-1.6172,-1.618,-1.6207,-1.6173,-1.6128,-1.6126,-1.6188,-1.6188,-1.6188,0,-1.5282,-1.5384,-1.5435,-1.5471,-1.5584,-1.5605,-1.5653,-1.5729,-1.5768,-1.5832,-1.5858,-1.5926,-1.5963,-1.6014,-1.6084,-1.6097,-1.6144,-1.6176,-1.6176,-1.6174,-1.6182,-1.618,-1.614,-1.6204,-1.6204,-1.6204,-1.6204,0,-1.5259,-1.5294,-1.5407,-1.5438,-1.5479,-1.5561,-1.5599,-1.5653,-1.572,-1.5762,-1.583,-1.5867,-1.5959,-1.6007,-1.6062,-1.6109,-1.6126,-1.6157,-1.6171,-1.615,-1.6146,-1.6171,-1.6173,-1.6203,-1.6204,-1.6204,-1.6204,0,-1.5192,-1.5269,-1.5329,-1.5431,-1.5458,-1.5484,-1.5571,-1.5603,-1.5661,-1.5713,-1.573,-1.582,-1.5881,-1.5956,-1.6041,-1.6078,-1.6119,-1.6141,-1.6093,-1.6101,-1.6096,-1.6095,-1.607,-1.6071,-1.6134,-1.6133,-1.6133,0,-1.5172,-1.5201,-1.5307,-1.534,-1.5386,-1.5439,-1.5481,-1.5562,-1.5601,-1.5689,-1.571,-1.5776,-1.5833,-1.5925,-1.5998,-1.6062,-1.6086,-1.6073,-1.6096,-1.6074,-1.6084,-1.6081,-1.6084,-1.6066,-1.6065,-1.6064,-1.6064,0,-1.5128,-1.5165,-1.5222,-1.5292,-1.534,-1.5399,-1.5461,-1.5484,-1.5577,-1.5618,-1.5682,-1.5725,-1.5812,-1.5876,-1.595,-1.5998,-1.6045,-1.6056,-1.6059,-1.6038,-1.6008,-1.6023,-1.6076,-1.6056,-1.6057,-1.6057,-1.6058,-1.6058,-1.5084,-1.5113,-1.5191,-1.5253,-1.5308,-1.5364,-1.5399,-1.5462,-1.5517,-1.5594,-1.5638,-1.5699,-1.5773,-1.5878,-1.5924,-1.5972,-1.599,-1.5995,-1.5996,-1.5995,-1.5988,-1.6002,-1.5986,-1.5986,-1.5987,-1.5987,-1.5987,0,-1.5042,-1.5097,-1.5152,-1.5237,-1.5285,-1.5328,-1.5398,-1.5435,-1.5488,-1.5554,-1.5609,-1.568,-1.5743,-1.582,-1.5888,-1.5911,-1.5935,-1.5926,-1.5924,-1.5934,-1.5969,-1.5959,-1.5906,-1.5906,-1.5906,-1.5906,-1.5906,-1.5906,-1.5026,-1.5077,-1.5123,-1.5202,-1.5256,-1.5317,-1.5354,-1.5406,-1.5458,-1.5536,-1.5588,-1.5639,-1.5709,-1.5782,-1.5841,-1.5862,-1.5883,-1.5867,-1.5894,-1.5925,-1.5932,-1.5939,-1.593,-1.5871,-1.5871,-1.5856,-1.5856,-1.5856]}]]